Time,TemperatureF,DewpointF,PressureIn,WindDirection,WindDirectionDegrees,WindSpeedMPH,WindSpeedGustMPH,Humidity,HourlyPrecipIn,Conditions,Clouds,dailyrainin,SoftwareType,DateUTC
2013-02-14 00:00:00,38.1,32.5,29.81,SSW,205,1.0,2.0,80,0.00,,SCT090,0.00,VWS V14.01,2013-02-14 06:00:00,
2013-02-14 00:05:00,38.2,32.6,29.81,SW,225,0.0,3.0,80,0.00,,SCT090,0.00,VWS V14.01,2013-02-14 06:05:00,
2013-02-14 00:10:00,38.3,32.7,29.80,WSW,249,0.0,2.0,80,0.00,,SCT090,0.00,VWS V14.01,2013-02-14 06:10:00,
2013-02-14 00:15:00,38.3,32.7,29.81,WSW,257,1.0,6.0,80,0.00,,SCT090,0.00,VWS V14.01,2013-02-14 06:15:00,
2013-02-14 00:20:00,38.5,32.6,29.80,SSW,212,0.0,4.0,79,0.00,,BKN090,0.00,VWS V14.01,2013-02-14 06:20:00,
2013-02-14 00:25:00,38.7,32.8,29.80,West,274,1.0,4.0,79,0.00,,BKN090,0.00,VWS V14.01,2013-02-14 06:25:00,
2013-02-14 00:30:00,38.9,32.6,29.80,WSW,239,1.0,5.0,78,0.00,,BKN090,0.00,VWS V14.01,2013-02-14 06:30:00,
2013-02-14 00:35:00,39.0,32.7,29.80,SW,228,2.0,5.0,78,0.00,,BKN090,0.00,VWS V14.01,2013-02-14 06:35:00,
2013-02-14 00:40:00,39.2,32.9,29.80,West,260,3.0,3.0,78,0.00,,OVC090,0.00,VWS V14.01,2013-02-14 06:40:00,
2013-02-14 00:45:00,39.1,32.5,29.80,SSW,200,1.0,4.0,77,0.00,,OVC090,0.00,VWS V14.01,2013-02-14 06:45:00,
2013-02-14 00:50:00,38.9,32.6,29.80,SSW,200,1.0,2.0,78,0.00,,OVC090,0.00,VWS V14.01,2013-02-14 06:50:00,
2013-02-14 00:55:00,38.7,32.4,29.80,South,179,0.0,2.0,78,0.00,,OVC090,0.00,VWS V14.01,2013-02-14 06:55:00,
2013-02-14 01:00:00,38.6,32.7,29.79,WSW,239,0.0,2.0,79,0.00,,OVC090,0.00,VWS V14.01,2013-02-14 07:00:00,
2013-02-14 01:05:00,38.5,32.6,29.79,West,273,0.0,4.0,79,0.00,,OVC090,0.00,VWS V14.01,2013-02-14 07:05:00,
2013-02-14 01:10:00,38.7,32.8,29.79,WSW,257,4.0,4.0,79,0.00,,OVC090,0.00,VWS V14.01,2013-02-14 07:10:00,
2013-02-14 01:16:00,39.3,33.0,29.79,SSW,194,1.0,9.0,78,0.00,,OVC090,0.00,VWS V14.01,2013-02-14 07:16:00,
2013-02-14 01:20:00,39.4,32.8,29.79,SW,229,3.0,9.0,77,0.00,,,0.00,VWS V14.01,2013-02-14 07:20:00,
2013-02-14 01:21:00,39.5,32.9,29.79,West,265,3.0,6.0,77,0.00,,BKN090,0.00,VWS V14.01,2013-02-14 07:21:00,
2013-02-14 01:26:00,39.5,32.9,29.79,WSW,248,2.0,6.0,77,0.00,,BKN090,0.00,VWS V14.01,2013-02-14 07:26:00,
2013-02-14 01:30:00,39.7,33.1,29.79,WSW,249,1.0,6.0,77,0.00,,,0.00,VWS V14.01,2013-02-14 07:30:00,
2013-02-14 01:31:00,39.8,33.2,29.79,West,270,2.0,7.0,77,0.00,,BKN090,0.00,VWS V14.01,2013-02-14 07:31:00,
2013-02-14 01:36:00,40.1,33.2,29.78,West,262,11.0,12.0,76,0.00,,BKN090,0.00,VWS V14.01,2013-02-14 07:36:00,
2013-02-14 01:40:00,40.3,33.0,29.78,WSW,253,3.0,12.0,75,0.00,,,0.00,VWS V14.01,2013-02-14 07:40:00,
2013-02-14 01:41:00,40.3,33.0,29.78,SSW,212,3.0,9.0,75,0.00,,OVC090,0.00,VWS V14.01,2013-02-14 07:41:00,
2013-02-14 01:46:00,40.3,33.3,29.78,South,188,4.0,9.0,76,0.00,,OVC090,0.00,VWS V14.01,2013-02-14 07:46:00,
2013-02-14 01:50:00,40.3,33.0,29.78,West,262,3.0,9.0,75,0.00,,,0.00,VWS V14.01,2013-02-14 07:50:00,
2013-02-14 01:51:00,40.3,33.3,29.78,SSW,203,3.0,5.0,76,0.00,,OVC090,0.00,VWS V14.01,2013-02-14 07:51:00,
2013-02-14 01:56:00,40.4,33.1,29.78,WNW,283,2.0,6.0,75,0.00,,OVC090,0.00,VWS V14.01,2013-02-14 07:56:00,
2013-02-14 02:00:00,40.4,33.1,29.77,SW,226,4.0,9.0,75,0.00,,,0.00,VWS V14.01,2013-02-14 08:00:00,
2013-02-14 02:01:00,40.5,33.2,29.77,WNW,302,3.0,9.0,75,0.00,,OVC085,0.00,VWS V14.01,2013-02-14 08:01:00,
2013-02-14 02:06:00,40.5,33.2,29.78,NW,305,3.0,9.0,75,0.00,,OVC085,0.00,VWS V14.01,2013-02-14 08:06:00,
2013-02-14 02:10:00,40.4,33.1,29.78,South,179,5.0,9.0,75,0.00,,,0.00,VWS V14.01,2013-02-14 08:10:00,
2013-02-14 02:11:00,40.4,33.1,29.78,WSW,245,7.0,8.0,75,0.00,,OVC085,0.00,VWS V14.01,2013-02-14 08:11:00,
2013-02-14 02:16:00,40.4,33.1,29.77,WSW,256,3.0,9.0,75,0.00,,OVC085,0.00,VWS V14.01,2013-02-14 08:16:00,
2013-02-14 02:20:00,40.3,33.3,29.77,WSW,238,2.0,9.0,76,0.00,,,0.00,VWS V14.01,2013-02-14 08:20:00,
2013-02-14 02:21:00,40.3,33.3,29.78,WNW,299,4.0,8.0,76,0.00,,BKN075,0.00,VWS V14.01,2013-02-14 08:21:00,
2013-02-14 02:27:00,40.3,33.3,29.77,SW,231,4.0,8.0,76,0.00,,BKN075,0.00,VWS V14.01,2013-02-14 08:27:00,
2013-02-14 02:30:00,40.2,33.2,29.77,WSW,239,4.0,8.0,76,0.00,,,0.00,VWS V14.01,2013-02-14 08:30:00,
2013-02-14 02:32:00,40.1,33.2,29.77,NW,323,2.0,7.0,76,0.00,,BKN075,0.00,VWS V14.01,2013-02-14 08:32:00,
2013-02-14 02:37:00,40.0,33.1,29.77,WNW,301,3.0,7.0,76,0.00,,BKN075,0.00,VWS V14.01,2013-02-14 08:37:00,
2013-02-14 02:40:00,39.9,33.3,29.77,West,269,5.0,7.0,77,0.00,,,0.00,VWS V14.01,2013-02-14 08:40:00,
2013-02-14 02:42:00,39.8,33.2,29.77,West,259,1.0,9.0,77,0.00,,SCT090,0.00,VWS V14.01,2013-02-14 08:42:00,
2013-02-14 02:47:00,39.7,33.1,29.77,WNW,290,2.0,9.0,77,0.00,,SCT090,0.00,VWS V14.01,2013-02-14 08:47:00,
2013-02-14 02:50:00,39.7,33.1,29.77,SSW,203,2.0,9.0,77,0.00,,,0.00,VWS V14.01,2013-02-14 08:50:00,
2013-02-14 02:52:00,39.6,33.0,29.76,SW,221,5.0,5.0,77,0.00,,SCT090,0.00,VWS V14.01,2013-02-14 08:52:00,
2013-02-14 02:57:00,39.5,33.2,29.76,SSW,194,2.0,9.0,78,0.00,,SCT090,0.00,VWS V14.01,2013-02-14 08:57:00,
2013-02-14 03:00:00,39.5,33.2,29.76,West,264,6.0,9.0,78,0.00,,,0.00,VWS V14.01,2013-02-14 09:00:00,
2013-02-14 03:02:00,39.4,33.1,29.76,WSW,245,1.0,9.0,78,0.00,,OVC080,0.00,VWS V14.01,2013-02-14 09:02:00,
2013-02-14 03:07:00,39.3,33.0,29.76,West,265,4.0,9.0,78,0.00,,OVC080,0.00,VWS V14.01,2013-02-14 09:07:00,
2013-02-14 03:10:00,39.3,33.0,29.76,West,276,3.0,9.0,78,0.00,,,0.00,VWS V14.01,2013-02-14 09:10:00,
2013-02-14 03:12:00,39.2,32.9,29.76,South,173,1.0,4.0,78,0.00,,OVC080,0.00,VWS V14.01,2013-02-14 09:12:00,
2013-02-14 03:17:00,39.1,33.2,29.76,West,276,4.0,10.0,79,0.00,,OVC080,0.00,VWS V14.01,2013-02-14 09:17:00,
2013-02-14 03:20:00,39.2,33.2,29.76,WSW,245,4.0,10.0,79,0.00,,,0.00,VWS V14.01,2013-02-14 09:20:00,
2013-02-14 03:23:00,39.1,33.2,29.76,SW,229,5.0,7.0,79,0.00,,OVC085,0.00,VWS V14.01,2013-02-14 09:23:00,
2013-02-14 03:28:00,39.0,33.0,29.76,West,265,3.0,7.0,79,0.00,,OVC085,0.00,VWS V14.01,2013-02-14 09:28:00,
2013-02-14 03:30:00,39.0,33.0,29.76,West,265,1.0,7.0,79,0.00,,,0.00,VWS V14.01,2013-02-14 09:30:00,
2013-02-14 03:33:00,39.0,33.4,29.76,West,274,3.0,6.0,80,0.00,,OVC085,0.00,VWS V14.01,2013-02-14 09:33:00,
2013-02-14 03:38:00,39.0,33.4,29.76,WSW,250,1.0,7.0,80,0.00,,OVC085,0.00,VWS V14.01,2013-02-14 09:38:00,
2013-02-14 03:40:00,39.0,33.4,29.76,West,276,1.0,7.0,80,0.00,,,0.00,VWS V14.01,2013-02-14 09:40:00,
2013-02-14 03:43:00,39.0,33.4,29.76,NW,307,0.0,4.0,80,0.00,,OVC085,0.00,VWS V14.01,2013-02-14 09:43:00,
2013-02-14 03:48:00,39.0,33.4,29.76,WSW,256,4.0,7.0,80,0.00,,OVC085,0.00,VWS V14.01,2013-02-14 09:48:00,
2013-02-14 03:50:00,39.0,33.4,29.76,West,274,5.0,8.0,80,0.00,,,0.00,VWS V14.01,2013-02-14 09:50:00,
2013-02-14 03:53:00,39.0,33.4,29.76,West,264,1.0,10.0,80,0.00,,OVC085,0.00,VWS V14.01,2013-02-14 09:53:00,
2013-02-14 03:58:00,38.9,33.3,29.76,West,270,3.0,10.0,80,0.00,,OVC085,0.00,VWS V14.01,2013-02-14 09:58:00,
2013-02-14 04:00:00,38.9,33.3,29.76,WSW,248,5.0,10.0,80,0.00,,,0.00,VWS V14.01,2013-02-14 10:00:00,
2013-02-14 04:03:00,38.8,33.5,29.76,WSW,250,6.0,9.0,81,0.00,,OVC085,0.00,VWS V14.01,2013-02-14 10:03:00,
2013-02-14 04:08:00,38.7,33.4,29.76,West,273,2.0,9.0,81,0.00,,OVC085,0.00,VWS V14.01,2013-02-14 10:08:00,
2013-02-14 04:10:00,38.7,33.4,29.76,West,270,4.0,9.0,81,0.00,,,0.00,VWS V14.01,2013-02-14 10:10:00,
2013-02-14 04:13:00,38.6,33.3,29.76,WNW,291,3.0,7.0,81,0.00,,BKN085,0.00,VWS V14.01,2013-02-14 10:13:00,
2013-02-14 04:18:00,38.5,33.2,29.76,West,262,4.0,8.0,81,0.00,,BKN085,0.00,VWS V14.01,2013-02-14 10:18:00,
2013-02-14 04:20:00,38.5,33.2,29.76,WNW,284,3.0,8.0,81,0.00,,,0.00,VWS V14.01,2013-02-14 10:20:00,
2013-02-14 04:24:00,38.4,33.4,29.76,WSW,253,6.0,9.0,82,0.00,,SCT090,0.00,VWS V14.01,2013-02-14 10:24:00,
2013-02-14 04:29:00,38.3,33.3,29.77,WNW,288,3.0,9.0,82,0.00,,SCT090,0.00,VWS V14.01,2013-02-14 10:29:00,
2013-02-14 04:30:00,38.3,33.3,29.77,WNW,288,3.0,9.0,82,0.00,,,0.00,VWS V14.01,2013-02-14 10:30:00,
2013-02-14 04:34:00,38.0,33.0,29.76,WSW,239,2.0,6.0,82,0.00,,SCT090,0.00,VWS V14.01,2013-02-14 10:34:00,
2013-02-14 04:39:00,37.8,33.1,29.77,West,267,3.0,3.0,83,0.00,,SCT090,0.00,VWS V14.01,2013-02-14 10:39:00,
2013-02-14 04:40:00,37.8,33.1,29.77,West,280,1.0,6.0,83,0.00,,,0.00,VWS V14.01,2013-02-14 10:40:00,
2013-02-14 04:44:00,37.7,33.0,29.77,WNW,288,4.0,9.0,83,0.00,,CLR,0.00,VWS V14.01,2013-02-14 10:44:00,
2013-02-14 04:49:00,37.7,33.0,29.77,WSW,242,3.0,9.0,83,0.00,,CLR,0.00,VWS V14.01,2013-02-14 10:49:00,
2013-02-14 04:50:00,37.7,33.0,29.77,West,267,4.0,9.0,83,0.00,,,0.00,VWS V14.01,2013-02-14 10:50:00,
2013-02-14 04:54:00,37.7,33.0,29.76,SSW,208,0.0,9.0,83,0.00,,CLR,0.00,VWS V14.01,2013-02-14 10:54:00,
2013-02-14 04:59:00,37.5,33.1,29.76,WSW,246,2.0,3.0,84,0.00,,CLR,0.00,VWS V14.01,2013-02-14 10:59:00,
2013-02-14 05:00:00,37.5,33.1,29.76,SSW,203,3.0,9.0,84,0.00,,,0.00,VWS V14.01,2013-02-14 11:00:00,
2013-02-14 05:04:00,37.4,33.0,29.77,WSW,257,2.0,5.0,84,0.00,,CLR,0.00,VWS V14.01,2013-02-14 11:04:00,
2013-02-14 05:09:00,37.4,33.0,29.77,West,259,1.0,4.0,84,0.00,,CLR,0.00,VWS V14.01,2013-02-14 11:09:00,
2013-02-14 05:10:00,37.4,33.0,29.77,West,269,1.0,5.0,84,0.00,,,0.00,VWS V14.01,2013-02-14 11:10:00,
2013-02-14 05:14:00,37.3,32.9,29.77,West,260,2.0,5.0,84,0.00,,CLR,0.00,VWS V14.01,2013-02-14 11:14:00,
2013-02-14 05:19:00,37.3,32.9,29.77,NW,309,1.0,2.0,84,0.00,,CLR,0.00,VWS V14.01,2013-02-14 11:19:00,
2013-02-14 05:20:00,37.3,33.2,29.77,WNW,287,2.0,5.0,85,0.00,,,0.00,VWS V14.01,2013-02-14 11:20:00,
2013-02-14 05:25:00,37.1,32.7,29.77,West,278,0.0,3.0,84,0.00,,CLR,0.00,VWS V14.01,2013-02-14 11:25:00,
2013-02-14 05:30:00,37.1,33.0,29.77,WSW,248,1.0,2.0,85,0.00,,CLR,0.00,VWS V14.01,2013-02-14 11:30:00,
2013-02-14 05:35:00,37.0,32.9,29.77,WSW,237,1.0,5.0,85,0.00,,CLR,0.00,VWS V14.01,2013-02-14 11:35:00,
2013-02-14 05:40:00,36.9,32.8,29.77,WSW,257,2.0,3.0,85,0.00,,CLR,0.00,VWS V14.01,2013-02-14 11:40:00,
2013-02-14 05:45:00,37.0,32.9,29.77,WSW,250,4.0,5.0,85,0.00,,CLR,0.00,VWS V14.01,2013-02-14 11:45:00,
2013-02-14 05:50:00,37.1,33.0,29.77,West,264,2.0,4.0,85,0.00,,CLR,0.00,VWS V14.01,2013-02-14 11:50:00,
2013-02-14 05:55:00,37.0,32.9,29.77,WSW,257,3.0,4.0,85,0.00,,CLR,0.00,VWS V14.01,2013-02-14 11:55:00,
2013-02-14 06:00:00,36.8,32.7,29.77,West,259,2.0,3.0,85,0.00,,CLR,0.00,VWS V14.01,2013-02-14 12:00:00,
2013-02-14 06:05:00,36.8,32.7,29.78,West,276,1.0,5.0,85,0.00,,CLR,0.00,VWS V14.01,2013-02-14 12:05:00,
2013-02-14 06:10:00,36.7,32.6,29.77,West,272,3.0,3.0,85,0.00,,CLR,0.00,VWS V14.01,2013-02-14 12:10:00,
2013-02-14 06:15:00,36.6,32.5,29.77,West,270,0.0,4.0,85,0.00,,CLR,0.00,VWS V14.01,2013-02-14 12:15:00,
2013-02-14 06:20:00,36.5,32.4,29.77,SW,229,1.0,4.0,85,0.00,,,0.00,VWS V14.01,2013-02-14 12:20:00,
2013-02-14 06:21:00,36.4,32.3,29.77,WSW,253,3.0,5.0,85,0.00,,CLR,0.00,VWS V14.01,2013-02-14 12:21:00,
2013-02-14 06:26:00,36.4,32.6,29.77,West,273,1.0,5.0,86,0.00,,CLR,0.00,VWS V14.01,2013-02-14 12:26:00,
2013-02-14 06:30:00,36.5,32.4,29.77,West,264,4.0,5.0,85,0.00,,,0.00,VWS V14.01,2013-02-14 12:30:00,
2013-02-14 06:31:00,36.5,32.4,29.77,WSW,254,0.0,4.0,85,0.00,,CLR,0.00,VWS V14.01,2013-02-14 12:31:00,
2013-02-14 06:36:00,36.5,32.4,29.78,West,280,0.0,4.0,85,0.00,,CLR,0.00,VWS V14.01,2013-02-14 12:36:00,
2013-02-14 06:40:00,36.5,32.4,29.78,West,259,4.0,6.0,85,0.00,,,0.00,VWS V14.01,2013-02-14 12:40:00,
2013-02-14 06:41:00,36.5,32.4,29.78,WSW,241,1.0,4.0,85,0.00,,CLR,0.00,VWS V14.01,2013-02-14 12:41:00,
2013-02-14 06:46:00,36.5,32.4,29.78,West,261,1.0,4.0,85,0.00,,CLR,0.00,VWS V14.01,2013-02-14 12:46:00,
2013-02-14 06:50:00,36.5,32.4,29.78,WNW,293,1.0,4.0,85,0.00,,,0.00,VWS V14.01,2013-02-14 12:50:00,
2013-02-14 06:51:00,36.5,32.4,29.78,WNW,288,2.0,2.0,85,0.00,,CLR,0.00,VWS V14.01,2013-02-14 12:51:00,
2013-02-14 06:56:00,36.3,32.2,29.79,West,263,1.0,3.0,85,0.00,,CLR,0.00,VWS V14.01,2013-02-14 12:56:00,
2013-02-14 07:00:00,36.3,32.5,29.79,West,264,2.0,4.0,86,0.00,,,0.00,VWS V14.01,2013-02-14 13:00:00,
2013-02-14 07:01:00,36.3,32.5,29.79,WSW,239,2.0,7.0,86,0.00,,CLR,0.00,VWS V14.01,2013-02-14 13:01:00,
2013-02-14 07:06:00,36.3,32.5,29.79,WSW,254,0.0,7.0,86,0.00,,CLR,0.00,VWS V14.01,2013-02-14 13:06:00,
2013-02-14 07:10:00,36.3,32.5,29.79,West,269,0.0,7.0,86,0.00,,,0.00,VWS V14.01,2013-02-14 13:10:00,
2013-02-14 07:11:00,36.3,32.5,29.79,WSW,256,1.0,2.0,86,0.00,,CLR,0.00,VWS V14.01,2013-02-14 13:11:00,
2013-02-14 07:16:00,36.3,32.5,29.80,WSW,248,0.0,4.0,86,0.00,,CLR,0.00,VWS V14.01,2013-02-14 13:16:00,
2013-02-14 07:20:00,36.3,32.5,29.80,WSW,247,0.0,4.0,86,0.00,,,0.00,VWS V14.01,2013-02-14 13:20:00,
2013-02-14 07:22:00,36.2,32.4,29.80,WSW,256,1.0,1.0,86,0.00,,SCT090,0.00,VWS V14.01,2013-02-14 13:22:00,
2013-02-14 07:27:00,36.2,32.4,29.80,SSW,203,1.0,3.0,86,0.00,,SCT090,0.00,VWS V14.01,2013-02-14 13:27:00,
2013-02-14 07:30:00,36.1,32.3,29.81,West,264,0.0,3.0,86,0.00,,,0.00,VWS V14.01,2013-02-14 13:30:00,
2013-02-14 07:32:00,36.1,32.3,29.80,WSW,243,2.0,3.0,86,0.00,,SCT090,0.00,VWS V14.01,2013-02-14 13:32:00,
2013-02-14 07:37:00,36.1,32.3,29.81,WSW,255,2.0,3.0,86,0.00,,SCT090,0.00,VWS V14.01,2013-02-14 13:37:00,
2013-02-14 07:40:00,36.0,32.2,29.81,West,262,1.0,3.0,86,0.00,,,0.00,VWS V14.01,2013-02-14 13:40:00,
2013-02-14 07:42:00,36.0,32.2,29.81,West,259,1.0,3.0,86,0.00,,BKN028,0.00,VWS V14.01,2013-02-14 13:42:00,
2013-02-14 07:47:00,36.1,32.3,29.81,NW,321,2.0,7.0,86,0.00,,BKN028,0.00,VWS V14.01,2013-02-14 13:47:00,
2013-02-14 07:50:00,36.1,32.3,29.81,WNW,283,1.0,7.0,86,0.00,,,0.00,VWS V14.01,2013-02-14 13:50:00,
2013-02-14 07:52:00,36.2,32.1,29.81,NW,316,2.0,3.0,85,0.00,,BKN028,0.00,VWS V14.01,2013-02-14 13:52:00,
2013-02-14 07:57:00,36.4,32.3,29.82,WNW,285,1.0,3.0,85,0.00,,BKN028,0.00,VWS V14.01,2013-02-14 13:57:00,
2013-02-14 08:00:00,36.5,32.4,29.82,WNW,288,1.0,3.0,85,0.00,,,0.00,VWS V14.01,2013-02-14 14:00:00,
2013-02-14 08:02:00,36.9,32.5,29.82,WNW,294,1.0,3.0,84,0.00,,BKN028,0.00,VWS V14.01,2013-02-14 14:02:00,
2013-02-14 08:07:00,37.6,32.6,29.82,NW,307,2.0,4.0,82,0.00,,BKN028,0.00,VWS V14.01,2013-02-14 14:07:00,
2013-02-14 08:10:00,37.7,32.7,29.82,NW,312,3.0,4.0,82,0.00,,,0.00,VWS V14.01,2013-02-14 14:10:00,
2013-02-14 08:12:00,37.9,32.6,29.82,WNW,296,2.0,3.0,81,0.00,,BKN028,0.00,VWS V14.01,2013-02-14 14:12:00,
2013-02-14 08:17:00,38.1,32.5,29.82,WNW,284,2.0,4.0,80,0.00,,BKN028,0.00,VWS V14.01,2013-02-14 14:17:00,
2013-02-14 08:20:00,38.1,32.5,29.82,NW,315,2.0,4.0,80,0.00,,,0.00,VWS V14.01,2013-02-14 14:20:00,
2013-02-14 08:22:00,38.1,32.5,29.82,NW,316,0.0,6.0,80,0.00,,BKN028,0.00,VWS V14.01,2013-02-14 14:22:00,
2013-02-14 08:27:00,38.1,32.2,29.82,WNW,295,5.0,10.0,79,0.00,,BKN028,0.00,VWS V14.01,2013-02-14 14:27:00,
2013-02-14 08:30:00,38.1,32.2,29.83,NW,305,2.0,10.0,79,0.00,,,0.00,VWS V14.01,2013-02-14 14:30:00,
2013-02-14 08:32:00,38.1,32.2,29.83,West,271,2.0,5.0,79,0.00,,BKN028,0.00,VWS V14.01,2013-02-14 14:32:00,
2013-02-14 08:38:00,38.1,32.2,29.83,NNW,345,5.0,10.0,79,0.00,,BKN028,0.00,VWS V14.01,2013-02-14 14:38:00,
2013-02-14 08:40:00,38.1,32.2,29.83,WNW,302,6.0,10.0,79,0.00,,,0.00,VWS V14.01,2013-02-14 14:40:00,
2013-02-14 08:43:00,38.0,32.1,29.83,NW,318,5.0,11.0,79,0.00,,BKN026,0.00,VWS V14.01,2013-02-14 14:43:00,
2013-02-14 08:48:00,37.9,32.0,29.83,NNW,342,2.0,11.0,79,0.00,,BKN026,0.00,VWS V14.01,2013-02-14 14:48:00,
2013-02-14 08:50:00,37.9,32.0,29.83,NW,318,9.0,11.0,79,0.00,,,0.00,VWS V14.01,2013-02-14 14:50:00,
2013-02-14 08:53:00,37.9,32.3,29.83,NW,316,4.0,11.0,80,0.00,,BKN026,0.00,VWS V14.01,2013-02-14 14:53:00,
2013-02-14 08:58:00,37.9,32.3,29.83,WSW,248,3.0,11.0,80,0.00,,BKN026,0.00,VWS V14.01,2013-02-14 14:58:00,
2013-02-14 09:00:00,37.9,32.3,29.83,NW,307,1.0,11.0,80,0.00,,,0.00,VWS V14.01,2013-02-14 15:00:00,
2013-02-14 09:03:00,37.9,32.3,29.84,NW,309,5.0,7.0,80,0.00,,SCT110,0.00,VWS V14.01,2013-02-14 15:03:00,
2013-02-14 09:08:00,37.9,32.0,29.84,NW,304,6.0,7.0,79,0.00,,SCT110,0.00,VWS V14.01,2013-02-14 15:08:00,
2013-02-14 09:10:00,37.9,32.0,29.84,NW,304,8.0,8.0,79,0.00,,,0.00,VWS V14.01,2013-02-14 15:10:00,
2013-02-14 09:13:00,37.9,32.3,29.84,NW,322,5.0,8.0,80,0.00,,SCT110,0.00,VWS V14.01,2013-02-14 15:13:00,
2013-02-14 09:18:00,37.9,32.3,29.84,West,281,2.0,8.0,80,0.00,,SCT110,0.00,VWS V14.01,2013-02-14 15:18:00,
2013-02-14 09:20:00,37.9,32.0,29.84,WNW,285,1.0,8.0,79,0.00,,,0.00,VWS V14.01,2013-02-14 15:20:00,
2013-02-14 09:23:00,37.9,32.0,29.84,WNW,291,4.0,8.0,79,0.00,,SCT110,0.00,VWS V14.01,2013-02-14 15:23:00,
2013-02-14 09:28:00,38.0,32.1,29.84,WNW,283,2.0,10.0,79,0.00,,SCT110,0.00,VWS V14.01,2013-02-14 15:28:00,
2013-02-14 09:30:00,37.9,32.0,29.84,West,273,3.0,10.0,79,0.00,,,0.00,VWS V14.01,2013-02-14 15:30:00,
2013-02-14 09:33:00,38.0,32.4,29.84,WNW,300,1.0,3.0,80,0.00,,SCT110,0.00,VWS V14.01,2013-02-14 15:33:00,
2013-02-14 09:38:00,37.9,32.3,29.84,WNW,300,2.0,7.0,80,0.00,,SCT110,0.00,VWS V14.01,2013-02-14 15:38:00,
2013-02-14 09:40:00,37.9,32.3,29.85,NW,305,3.0,7.0,80,0.00,,,0.00,VWS V14.01,2013-02-14 15:40:00,
2013-02-14 09:43:00,38.0,32.1,29.85,WSW,247,4.0,10.0,79,0.00,,BKN090,0.00,VWS V14.01,2013-02-14 15:43:00,
2013-02-14 09:49:00,38.0,32.1,29.85,NNW,343,2.0,10.0,79,0.00,,BKN090,0.00,VWS V14.01,2013-02-14 15:49:00,
2013-02-14 09:50:00,38.0,32.1,29.85,NNW,347,1.0,10.0,79,0.00,,,0.00,VWS V14.01,2013-02-14 15:50:00,
2013-02-14 09:54:00,38.1,31.9,29.85,North,356,1.0,8.0,78,0.00,,BKN090,0.00,VWS V14.01,2013-02-14 15:54:00,
2013-02-14 09:59:00,38.1,31.9,29.85,WNW,287,3.0,8.0,78,0.00,,BKN090,0.00,VWS V14.01,2013-02-14 15:59:00,
2013-02-14 10:00:00,38.1,31.9,29.85,WNW,287,3.0,8.0,78,0.00,,,0.00,VWS V14.01,2013-02-14 16:00:00,
2013-02-14 10:04:00,38.1,31.5,29.86,WNW,289,2.0,8.0,77,0.00,,SCT065,0.00,VWS V14.01,2013-02-14 16:04:00,
2013-02-14 10:09:00,38.2,31.6,29.86,NNW,347,2.0,5.0,77,0.00,,SCT065,0.00,VWS V14.01,2013-02-14 16:09:00,
2013-02-14 10:10:00,38.2,31.6,29.86,WNW,295,3.0,11.0,77,0.00,,,0.00,VWS V14.01,2013-02-14 16:10:00,
2013-02-14 10:14:00,38.3,31.7,29.86,WNW,300,3.0,7.0,77,0.00,,SCT065,0.00,VWS V14.01,2013-02-14 16:14:00,
2013-02-14 10:19:00,38.3,31.7,29.86,NNW,347,3.0,3.0,77,0.00,,SCT065,0.00,VWS V14.01,2013-02-14 16:19:00,
2013-02-14 10:20:00,38.3,31.7,29.86,West,269,2.0,7.0,77,0.00,,,0.00,VWS V14.01,2013-02-14 16:20:00,
2013-02-14 10:24:00,38.4,31.8,29.87,WNW,295,3.0,14.0,77,0.00,,SCT095,0.00,VWS V14.01,2013-02-14 16:24:00,
2013-02-14 10:29:00,38.4,31.8,29.87,WNW,291,3.0,6.0,77,0.00,,SCT095,0.00,VWS V14.01,2013-02-14 16:29:00,
2013-02-14 10:30:00,38.4,31.8,29.87,NW,316,3.0,14.0,77,0.00,,,0.00,VWS V14.01,2013-02-14 16:30:00,
2013-02-14 10:34:00,38.5,31.6,29.87,NW,314,4.0,8.0,76,0.00,,SCT095,0.00,VWS V14.01,2013-02-14 16:34:00,
2013-02-14 10:39:00,38.4,31.2,29.88,WNW,290,6.0,6.0,75,0.00,,SCT095,0.00,VWS V14.01,2013-02-14 16:39:00,
2013-02-14 10:40:00,38.5,31.3,29.88,WNW,303,5.0,11.0,75,0.00,,,0.00,VWS V14.01,2013-02-14 16:40:00,
2013-02-14 10:44:00,38.3,31.1,29.88,WNW,285,4.0,14.0,75,0.00,,SCT028,0.00,VWS V14.01,2013-02-14 16:44:00,
2013-02-14 10:49:00,38.2,31.0,29.88,NW,320,3.0,6.0,75,0.00,,SCT028,0.00,VWS V14.01,2013-02-14 16:49:00,
2013-02-14 10:50:00,38.2,31.0,29.88,NW,305,4.0,14.0,75,0.00,,,0.00,VWS V14.01,2013-02-14 16:50:00,
2013-02-14 10:55:00,38.2,31.0,29.89,WNW,294,2.0,6.0,75,0.00,,SCT028,0.00,VWS V14.01,2013-02-14 16:55:00,
2013-02-14 11:00:00,38.0,30.5,29.89,WNW,301,7.0,10.0,74,0.00,,SCT028,0.00,VWS V14.01,2013-02-14 17:00:00,
2013-02-14 11:05:00,38.0,30.8,29.89,WNW,283,4.0,10.0,75,0.00,,SCT028,0.00,VWS V14.01,2013-02-14 17:05:00,
2013-02-14 11:10:00,38.0,30.8,29.89,WNW,301,3.0,7.0,75,0.00,,SCT028,0.00,VWS V14.01,2013-02-14 17:10:00,
2013-02-14 11:15:00,38.1,30.9,29.89,WNW,295,7.0,12.0,75,0.00,,SCT028,0.00,VWS V14.01,2013-02-14 17:15:00,
2013-02-14 11:20:00,38.1,30.9,29.89,NW,311,5.0,10.0,75,0.00,,CLR,0.00,VWS V14.01,2013-02-14 17:20:00,
2013-02-14 11:25:00,38.2,31.3,29.89,WNW,300,4.0,10.0,76,0.00,,CLR,0.00,VWS V14.01,2013-02-14 17:25:00,
2013-02-14 11:30:00,38.3,31.4,29.89,WNW,283,5.0,11.0,76,0.00,,CLR,0.00,VWS V14.01,2013-02-14 17:30:00,
2013-02-14 11:35:00,38.3,31.4,29.89,WNW,297,2.0,11.0,76,0.00,,CLR,0.00,VWS V14.01,2013-02-14 17:35:00,
2013-02-14 11:40:00,38.4,31.2,29.89,WNW,291,3.0,9.0,75,0.00,,SCT095,0.00,VWS V14.01,2013-02-14 17:40:00,
2013-02-14 11:45:00,38.4,31.5,29.89,WNW,300,4.0,9.0,76,0.00,,SCT095,0.00,VWS V14.01,2013-02-14 17:45:00,
2013-02-14 11:50:00,38.5,31.3,29.90,West,277,4.0,5.0,75,0.00,,SCT095,0.00,VWS V14.01,2013-02-14 17:50:00,
2013-02-14 11:55:00,38.6,31.7,29.90,WNW,295,3.0,8.0,76,0.00,,SCT095,0.00,VWS V14.01,2013-02-14 17:55:00,
2013-02-14 12:00:00,38.6,31.4,29.89,NW,309,5.0,9.0,75,0.00,,CLR,0.00,VWS V14.01,2013-02-14 18:00:00,
2013-02-14 12:05:00,38.7,31.5,29.89,NNW,339,3.0,9.0,75,0.00,,CLR,0.00,VWS V14.01,2013-02-14 18:05:00,
2013-02-14 12:10:00,38.8,31.6,29.89,NW,307,8.0,9.0,75,0.00,,,0.00,VWS V14.01,2013-02-14 18:10:00,
2013-02-14 12:11:00,38.7,31.5,29.89,NW,304,6.0,14.0,75,0.00,,CLR,0.00,VWS V14.01,2013-02-14 18:11:00,
2013-02-14 12:16:00,38.7,31.5,29.89,WNW,303,4.0,14.0,75,0.00,,CLR,0.00,VWS V14.01,2013-02-14 18:16:00,
2013-02-14 12:20:00,38.8,31.6,29.89,WNW,293,2.0,14.0,75,0.00,,,0.00,VWS V14.01,2013-02-14 18:20:00,
2013-02-14 12:21:00,38.8,31.6,29.89,NW,320,4.0,8.0,75,0.00,,CLR,0.00,VWS V14.01,2013-02-14 18:21:00,
2013-02-14 12:26:00,38.9,31.3,29.89,NW,322,5.0,10.0,74,0.00,,CLR,0.00,VWS V14.01,2013-02-14 18:26:00,
2013-02-14 12:30:00,38.9,31.7,29.89,West,269,4.0,10.0,75,0.00,,,0.00,VWS V14.01,2013-02-14 18:30:00,
2013-02-14 12:31:00,38.9,31.3,29.89,WNW,283,4.0,11.0,74,0.00,,CLR,0.00,VWS V14.01,2013-02-14 18:31:00,
2013-02-14 12:36:00,39.1,31.5,29.89,NW,319,6.0,11.0,74,0.00,,CLR,0.00,VWS V14.01,2013-02-14 18:36:00,
2013-02-14 12:40:00,39.2,31.6,29.90,NW,304,3.0,11.0,74,0.00,,,0.00,VWS V14.01,2013-02-14 18:40:00,
2013-02-14 12:41:00,39.3,31.7,29.90,WNW,285,7.0,7.0,74,0.00,,CLR,0.00,VWS V14.01,2013-02-14 18:41:00,
2013-02-14 12:46:00,39.4,31.8,29.90,NNW,331,3.0,8.0,74,0.00,,CLR,0.00,VWS V14.01,2013-02-14 18:46:00,
2013-02-14 12:50:00,39.4,31.8,29.90,NW,321,3.0,9.0,74,0.00,,,0.00,VWS V14.01,2013-02-14 18:50:00,
2013-02-14 12:51:00,39.5,31.6,29.90,WNW,287,6.0,8.0,73,0.00,,CLR,0.00,VWS V14.01,2013-02-14 18:51:00,
2013-02-14 12:56:00,39.7,32.1,29.90,NW,312,6.0,11.0,74,0.00,,CLR,0.00,VWS V14.01,2013-02-14 18:56:00,
2013-02-14 13:00:00,39.8,31.9,29.90,NW,323,4.0,11.0,73,0.00,,,0.00,VWS V14.01,2013-02-14 19:00:00,
2013-02-14 13:01:00,39.8,31.9,29.90,WNW,300,4.0,11.0,73,0.00,,SCT090,0.00,VWS V14.01,2013-02-14 19:01:00,
2013-02-14 13:06:00,39.9,32.3,29.90,WNW,302,2.0,12.0,74,0.00,,SCT090,0.00,VWS V14.01,2013-02-14 19:06:00,
2013-02-14 13:10:00,40.0,32.4,29.90,NW,315,5.0,12.0,74,0.00,,,0.00,VWS V14.01,2013-02-14 19:10:00,
2013-02-14 13:11:00,40.1,32.2,29.90,NW,312,7.0,8.0,73,0.00,,SCT090,0.00,VWS V14.01,2013-02-14 19:11:00,
2013-02-14 13:16:00,40.3,32.3,29.91,NNW,333,3.0,10.0,73,0.00,,SCT090,0.00,VWS V14.01,2013-02-14 19:16:00,
2013-02-14 13:20:00,40.3,32.0,29.91,NW,318,4.0,10.0,72,0.00,,,0.00,VWS V14.01,2013-02-14 19:20:00,
2013-02-14 13:22:00,40.3,32.0,29.91,NNW,330,3.0,9.0,72,0.00,,CLR,0.00,VWS V14.01,2013-02-14 19:22:00,
2013-02-14 13:27:00,40.4,32.1,29.91,WNW,302,6.0,9.0,72,0.00,,CLR,0.00,VWS V14.01,2013-02-14 19:27:00,
2013-02-14 13:30:00,40.4,32.1,29.91,NW,313,4.0,9.0,72,0.00,,,0.00,VWS V14.01,2013-02-14 19:30:00,
2013-02-14 13:32:00,40.4,32.1,29.91,WNW,290,3.0,10.0,72,0.00,,CLR,0.00,VWS V14.01,2013-02-14 19:32:00,
2013-02-14 13:37:00,40.5,32.2,29.91,NNW,331,10.0,12.0,72,0.00,,CLR,0.00,VWS V14.01,2013-02-14 19:37:00,
2013-02-14 13:40:00,40.4,31.8,29.91,WNW,302,4.0,12.0,71,0.00,,,0.00,VWS V14.01,2013-02-14 19:40:00,
2013-02-14 13:42:00,40.4,32.1,29.91,WNW,301,5.0,8.0,72,0.00,,CLR,0.00,VWS V14.01,2013-02-14 19:42:00,
2013-02-14 13:47:00,40.3,31.7,29.91,NW,319,8.0,13.0,71,0.00,,CLR,0.00,VWS V14.01,2013-02-14 19:47:00,
2013-02-14 13:50:00,40.4,31.8,29.91,NW,318,8.0,13.0,71,0.00,,,0.00,VWS V14.01,2013-02-14 19:50:00,
2013-02-14 13:52:00,40.3,31.7,29.91,North,349,4.0,11.0,71,0.00,,CLR,0.00,VWS V14.01,2013-02-14 19:52:00,
2013-02-14 13:57:00,40.4,32.1,29.91,NW,307,3.0,13.0,72,0.00,,CLR,0.00,VWS V14.01,2013-02-14 19:57:00,
2013-02-14 14:00:00,40.5,32.2,29.92,NW,319,5.0,13.0,72,0.00,,,0.00,VWS V14.01,2013-02-14 20:00:00,
2013-02-14 14:02:00,40.5,32.2,29.92,WNW,287,4.0,8.0,72,0.00,,SCT036,0.00,VWS V14.01,2013-02-14 20:02:00,
2013-02-14 14:07:00,40.4,31.8,29.92,NW,312,8.0,13.0,71,0.00,,SCT036,0.00,VWS V14.01,2013-02-14 20:07:00,
2013-02-14 14:10:00,40.4,31.8,29.92,NW,315,3.0,13.0,71,0.00,,,0.00,VWS V14.01,2013-02-14 20:10:00,
2013-02-14 14:12:00,40.3,31.7,29.92,WNW,290,3.0,9.0,71,0.00,,SCT036,0.00,VWS V14.01,2013-02-14 20:12:00,
2013-02-14 14:17:00,40.3,31.7,29.93,NW,319,2.0,9.0,71,0.00,,SCT036,0.00,VWS V14.01,2013-02-14 20:17:00,
2013-02-14 14:20:00,40.3,31.7,29.93,WNW,301,2.0,9.0,71,0.00,,,0.00,VWS V14.01,2013-02-14 20:20:00,
2013-02-14 14:22:00,40.3,31.7,29.93,West,262,1.0,7.0,71,0.00,,SCT035,0.00,VWS V14.01,2013-02-14 20:22:00,
2013-02-14 14:27:00,40.3,31.7,29.93,NNW,343,5.0,9.0,71,0.00,,SCT035,0.00,VWS V14.01,2013-02-14 20:27:00,
2013-02-14 14:30:00,40.2,31.6,29.93,WNW,293,4.0,10.0,71,0.00,,,0.00,VWS V14.01,2013-02-14 20:30:00,
2013-02-14 14:32:00,40.1,31.5,29.93,WNW,300,1.0,7.0,71,0.00,,SCT035,0.00,VWS V14.01,2013-02-14 20:32:00,
2013-02-14 14:38:00,40.0,31.7,29.93,West,271,2.0,7.0,72,0.00,,SCT035,0.00,VWS V14.01,2013-02-14 20:38:00,
2013-02-14 14:40:00,39.9,31.6,29.93,NW,312,4.0,7.0,72,0.00,,,0.00,VWS V14.01,2013-02-14 20:40:00,
2013-02-14 14:43:00,39.9,31.6,29.94,SE,143,2.0,7.0,72,0.00,,SCT070,0.00,VWS V14.01,2013-02-14 20:43:00,
2013-02-14 14:48:00,39.8,31.5,29.94,NNW,335,4.0,10.0,72,0.00,,SCT070,0.00,VWS V14.01,2013-02-14 20:48:00,
2013-02-14 14:50:00,39.8,31.2,29.94,NW,309,3.0,10.0,71,0.00,,,0.00,VWS V14.01,2013-02-14 20:50:00,
2013-02-14 14:53:00,39.8,31.5,29.94,NW,314,3.0,6.0,72,0.00,,SCT070,0.00,VWS V14.01,2013-02-14 20:53:00,
2013-02-14 14:58:00,39.7,31.4,29.94,West,264,2.0,6.0,72,0.00,,SCT070,0.00,VWS V14.01,2013-02-14 20:58:00,
2013-02-14 15:00:00,39.7,31.4,29.94,WNW,300,4.0,6.0,72,0.00,,,0.00,VWS V14.01,2013-02-14 21:00:00,
2013-02-14 15:03:00,39.6,31.3,29.95,WNW,302,3.0,6.0,72,0.00,,BKN040,0.00,VWS V14.01,2013-02-14 21:03:00,
2013-02-14 15:08:00,39.5,31.6,29.95,WNW,302,6.0,8.0,73,0.00,,BKN040,0.00,VWS V14.01,2013-02-14 21:08:00,
2013-02-14 15:10:00,39.5,31.6,29.95,NW,306,4.0,8.0,73,0.00,,,0.00,VWS V14.01,2013-02-14 21:10:00,
2013-02-14 15:13:00,39.4,31.5,29.95,WNW,283,2.0,4.0,73,0.00,,BKN040,0.00,VWS V14.01,2013-02-14 21:13:00,
2013-02-14 15:18:00,39.3,31.0,29.96,NW,319,2.0,6.0,72,0.00,,BKN040,0.00,VWS V14.01,2013-02-14 21:18:00,
2013-02-14 15:20:00,39.3,31.0,29.96,WNW,284,3.0,6.0,72,0.00,,,0.00,VWS V14.01,2013-02-14 21:20:00,
2013-02-14 15:23:00,39.3,31.0,29.96,NW,323,2.0,5.0,72,0.00,,BKN040,0.00,VWS V14.01,2013-02-14 21:23:00,
2013-02-14 15:28:00,39.3,31.0,29.96,WNW,290,1.0,5.0,72,0.00,,BKN040,0.00,VWS V14.01,2013-02-14 21:28:00,
2013-02-14 15:30:00,39.3,31.0,29.96,WNW,290,2.0,5.0,72,0.00,,,0.00,VWS V14.01,2013-02-14 21:30:00,
2013-02-14 15:33:00,39.3,31.4,29.96,NW,304,2.0,4.0,73,0.00,,BKN040,0.00,VWS V14.01,2013-02-14 21:33:00,
2013-02-14 15:38:00,39.3,31.0,29.97,WNW,294,4.0,4.0,72,0.00,,BKN040,0.00,VWS V14.01,2013-02-14 21:38:00,
2013-02-14 15:40:00,39.3,31.0,29.97,WNW,293,4.0,5.0,72,0.00,,,0.00,VWS V14.01,2013-02-14 21:40:00,
2013-02-14 15:43:00,39.2,31.0,29.97,WNW,297,2.0,7.0,72,0.00,,SCT042,0.00,VWS V14.01,2013-02-14 21:43:00,
2013-02-14 15:49:00,39.2,31.0,29.97,West,278,2.0,7.0,72,0.00,,SCT042,0.00,VWS V14.01,2013-02-14 21:49:00,
2013-02-14 15:50:00,39.2,31.0,29.97,West,278,2.0,7.0,72,0.00,,,0.00,VWS V14.01,2013-02-14 21:50:00,
2013-02-14 15:54:00,39.1,30.9,29.97,NW,314,3.0,4.0,72,0.00,,SCT042,0.00,VWS V14.01,2013-02-14 21:54:00,
2013-02-14 15:59:00,39.1,30.9,29.98,West,281,6.0,6.0,72,0.00,,SCT042,0.00,VWS V14.01,2013-02-14 21:59:00,
2013-02-14 16:00:00,39.1,30.9,29.98,WNW,292,5.0,8.0,72,0.00,,,0.00,VWS V14.01,2013-02-14 22:00:00,
2013-02-14 16:04:00,39.1,30.9,29.98,NW,304,3.0,6.0,72,0.00,,BKN044,0.00,VWS V14.01,2013-02-14 22:04:00,
2013-02-14 16:09:00,39.0,30.8,29.98,NNW,329,5.0,8.0,72,0.00,,BKN044,0.00,VWS V14.01,2013-02-14 22:09:00,
2013-02-14 16:10:00,39.0,30.8,29.98,NNW,335,8.0,10.0,72,0.00,,,0.00,VWS V14.01,2013-02-14 22:10:00,
2013-02-14 16:14:00,39.0,31.1,29.98,WNW,302,1.0,8.0,73,0.00,,BKN044,0.00,VWS V14.01,2013-02-14 22:14:00,
2013-02-14 16:19:00,38.9,31.0,29.98,WNW,302,4.0,4.0,73,0.00,,BKN044,0.00,VWS V14.01,2013-02-14 22:19:00,
2013-02-14 16:20:00,38.9,31.0,29.98,WNW,302,3.0,8.0,73,0.00,,,0.00,VWS V14.01,2013-02-14 22:20:00,
2013-02-14 16:24:00,38.9,31.0,29.99,NNW,328,4.0,6.0,73,0.00,,OVC046,0.00,VWS V14.01,2013-02-14 22:24:00,
2013-02-14 16:29:00,38.9,31.0,29.99,WNW,283,1.0,3.0,73,0.00,,OVC046,0.00,VWS V14.01,2013-02-14 22:29:00,
2013-02-14 16:30:00,38.9,31.0,29.99,WNW,288,1.0,6.0,73,0.00,,,0.00,VWS V14.01,2013-02-14 22:30:00,
2013-02-14 16:34:00,38.9,31.0,29.99,West,271,1.0,5.0,73,0.00,,OVC046,0.00,VWS V14.01,2013-02-14 22:34:00,
2013-02-14 16:39:00,38.9,31.0,29.99,NW,315,1.0,4.0,73,0.00,,BKN048,0.00,VWS V14.01,2013-02-14 22:39:00,
2013-02-14 16:40:00,38.9,31.0,29.99,West,271,4.0,8.0,73,0.00,,,0.00,VWS V14.01,2013-02-14 22:40:00,
2013-02-14 16:44:00,38.9,31.0,29.99,NNW,331,3.0,5.0,73,0.00,,BKN048,0.00,VWS V14.01,2013-02-14 22:44:00,
2013-02-14 16:49:00,38.8,30.9,29.99,WNW,287,3.0,4.0,73,0.00,,BKN048,0.00,VWS V14.01,2013-02-14 22:49:00,
2013-02-14 16:50:00,38.8,30.9,29.99,NW,326,4.0,5.0,73,0.00,,,0.00,VWS V14.01,2013-02-14 22:50:00,
2013-02-14 16:55:00,38.7,31.1,30.00,WNW,285,4.0,5.0,74,0.00,,BKN048,0.00,VWS V14.01,2013-02-14 22:55:00,
2013-02-14 17:00:00,38.5,31.0,30.00,WNW,291,4.0,5.0,74,0.00,,BKN050,0.00,VWS V14.01,2013-02-14 23:00:00,
2013-02-14 17:05:00,38.4,30.9,30.00,WNW,288,1.0,5.0,74,0.00,,BKN050,0.00,VWS V14.01,2013-02-14 23:05:00,
2013-02-14 17:10:00,38.4,30.9,30.01,NNE,19,4.0,5.0,74,0.00,,BKN050,0.00,VWS V14.01,2013-02-14 23:10:00,
2013-02-14 17:15:00,38.3,30.8,30.01,NW,312,2.0,8.0,74,0.00,,BKN050,0.00,VWS V14.01,2013-02-14 23:15:00,
2013-02-14 17:20:00,38.3,30.8,30.01,NW,312,4.0,4.0,74,0.00,,OVC050,0.00,VWS V14.01,2013-02-14 23:20:00,
2013-02-14 17:25:00,38.3,30.8,30.01,WNW,294,2.0,7.0,74,0.00,,OVC050,0.00,VWS V14.01,2013-02-14 23:25:00,
2013-02-14 17:30:00,38.1,30.6,30.01,NW,307,3.0,4.0,74,0.00,,OVC050,0.00,VWS V14.01,2013-02-14 23:30:00,
2013-02-14 17:35:00,38.1,30.6,30.02,NW,318,5.0,5.0,74,0.00,,OVC050,0.00,VWS V14.01,2013-02-14 23:35:00,
2013-02-14 17:40:00,38.1,30.6,30.02,NW,322,3.0,6.0,74,0.00,,OVC050,0.00,VWS V14.01,2013-02-14 23:40:00,
2013-02-14 17:45:00,38.1,30.2,30.02,NW,312,5.0,9.0,73,0.00,,OVC050,0.00,VWS V14.01,2013-02-14 23:45:00,
2013-02-14 17:50:00,38.1,30.2,30.02,West,265,0.0,3.0,73,0.00,,OVC050,0.00,VWS V14.01,2013-02-14 23:50:00,
2013-02-14 17:56:00,38.0,30.5,30.02,NNW,327,2.0,3.0,74,0.00,,OVC050,0.00,VWS V14.01,2013-02-14 23:56:00,
2013-02-14 18:00:00,37.9,30.4,30.02,NW,323,2.0,6.0,74,0.00,,,0.00,VWS V14.01,2013-02-15 00:00:00,
2013-02-14 18:01:00,37.9,30.4,30.02,NW,307,4.0,7.0,74,0.00,,BKN050,0.00,VWS V14.01,2013-02-15 00:01:00,
2013-02-14 18:06:00,37.9,30.4,30.01,NW,315,1.0,7.0,74,0.00,,BKN050,0.00,VWS V14.01,2013-02-15 00:06:00,
2013-02-14 18:10:00,37.8,30.3,30.01,NW,316,2.0,7.0,74,0.00,,,0.00,VWS V14.01,2013-02-15 00:10:00,
2013-02-14 18:11:00,37.7,30.2,30.01,WNW,289,1.0,2.0,74,0.00,,BKN050,0.00,VWS V14.01,2013-02-15 00:11:00,
2013-02-14 18:16:00,37.3,30.1,30.01,NW,307,1.0,2.0,75,0.00,,BKN050,0.00,VWS V14.01,2013-02-15 00:16:00,
2013-02-14 18:20:00,37.2,30.0,30.01,NW,316,3.0,4.0,75,0.00,,,0.00,VWS V14.01,2013-02-15 00:20:00,
2013-02-14 18:21:00,37.1,30.2,30.01,NW,312,1.0,4.0,76,0.00,,OVC060,0.00,VWS V14.01,2013-02-15 00:21:00,
2013-02-14 18:26:00,36.9,30.0,30.01,WNW,301,0.0,4.0,76,0.00,,OVC060,0.00,VWS V14.01,2013-02-15 00:26:00,
2013-02-14 18:30:00,36.7,29.9,30.01,WNW,301,0.0,4.0,76,0.00,,,0.00,VWS V14.01,2013-02-15 00:30:00,
2013-02-14 18:31:00,36.5,30.0,30.01,WNW,301,1.0,1.0,77,0.00,,OVC060,0.00,VWS V14.01,2013-02-15 00:31:00,
2013-02-14 18:36:00,36.2,29.7,30.01,WNW,302,0.0,2.0,77,0.00,,OVC060,0.00,VWS V14.01,2013-02-15 00:36:00,
2013-02-14 18:40:00,36.1,29.6,30.02,WNW,302,0.0,2.0,77,0.00,,,0.00,VWS V14.01,2013-02-15 00:40:00,
2013-02-14 18:41:00,35.9,29.7,30.02,WNW,302,0.0,1.0,78,0.00,,BKN070,0.00,VWS V14.01,2013-02-15 00:41:00,
2013-02-14 18:46:00,35.6,29.7,30.02,WNW,301,0.0,1.0,79,0.00,,BKN070,0.00,VWS V14.01,2013-02-15 00:46:00,
2013-02-14 18:50:00,35.6,29.7,30.02,WNW,301,0.0,1.0,79,0.00,,,0.00,VWS V14.01,2013-02-15 00:50:00,
2013-02-14 18:51:00,35.5,29.6,30.02,WNW,301,0.0,0.0,79,0.00,,BKN070,0.00,VWS V14.01,2013-02-15 00:51:00,
2013-02-14 18:56:00,35.3,29.5,30.02,WNW,302,0.0,1.0,79,0.00,,BKN070,0.00,VWS V14.01,2013-02-15 00:56:00,
2013-02-14 19:00:00,35.3,29.5,30.02,WNW,302,0.0,1.0,79,0.00,,,0.00,VWS V14.01,2013-02-15 01:00:00,
2013-02-14 19:01:00,35.2,29.7,30.03,WNW,302,0.0,0.0,80,0.00,,SCT070,0.00,VWS V14.01,2013-02-15 01:01:00,
2013-02-14 19:07:00,35.0,29.5,30.03,WNW,302,0.0,0.0,80,0.00,,SCT070,0.00,VWS V14.01,2013-02-15 01:07:00,
2013-02-14 19:10:00,35.0,29.5,30.03,WNW,302,0.0,0.0,80,0.00,,,0.00,VWS V14.01,2013-02-15 01:10:00,
2013-02-14 19:12:00,35.0,29.5,30.03,WNW,301,0.0,1.0,80,0.00,,SCT070,0.00,VWS V14.01,2013-02-15 01:12:00,
2013-02-14 19:17:00,35.1,29.6,30.03,WNW,301,0.0,1.0,80,0.00,,SCT070,0.00,VWS V14.01,2013-02-15 01:17:00,
2013-02-14 19:20:00,35.1,29.9,30.03,WNW,301,0.0,1.0,81,0.00,,,0.00,VWS V14.01,2013-02-15 01:20:00,
2013-02-14 19:22:00,35.2,30.0,30.03,WNW,301,0.0,0.0,81,0.00,,SCT090,0.00,VWS V14.01,2013-02-15 01:22:00,
2013-02-14 19:27:00,35.4,29.9,30.03,WNW,301,0.0,1.0,80,0.00,,SCT090,0.00,VWS V14.01,2013-02-15 01:27:00,
2013-02-14 19:30:00,35.4,29.9,30.03,SW,221,0.0,1.0,80,0.00,,,0.00,VWS V14.01,2013-02-15 01:30:00,
2013-02-14 19:32:00,35.6,30.0,30.03,WSW,246,0.0,3.0,80,0.00,,SCT090,0.00,VWS V14.01,2013-02-15 01:32:00,
2013-02-14 19:37:00,35.7,30.1,30.03,WSW,238,0.0,3.0,80,0.00,,SCT090,0.00,VWS V14.01,2013-02-15 01:37:00,
2013-02-14 19:40:00,35.6,30.0,30.03,WSW,237,0.0,3.0,80,0.00,,,0.00,VWS V14.01,2013-02-15 01:40:00,
2013-02-14 19:42:00,35.5,30.0,30.03,WSW,238,0.0,0.0,80,0.00,,BKN090,0.00,VWS V14.01,2013-02-15 01:42:00,
2013-02-14 19:47:00,35.5,30.0,30.03,WSW,239,1.0,1.0,80,0.00,,BKN090,0.00,VWS V14.01,2013-02-15 01:47:00,
2013-02-14 19:50:00,35.5,30.0,30.03,WSW,239,0.0,1.0,80,0.00,,,0.00,VWS V14.01,2013-02-15 01:50:00,
2013-02-14 19:52:00,35.6,30.0,30.03,WSW,248,1.0,2.0,80,0.00,,BKN090,0.00,VWS V14.01,2013-02-15 01:52:00,
2013-02-14 19:57:00,35.6,30.0,30.04,WSW,247,0.0,2.0,80,0.00,,BKN090,0.00,VWS V14.01,2013-02-15 01:57:00,
2013-02-14 20:00:00,35.6,30.0,30.04,WSW,248,0.0,2.0,80,0.00,,,0.00,VWS V14.01,2013-02-15 02:00:00,
2013-02-14 20:02:00,35.6,30.0,30.04,WSW,247,0.0,1.0,80,0.00,,OVC060,0.00,VWS V14.01,2013-02-15 02:02:00,
2013-02-14 20:07:00,35.6,30.4,30.03,WSW,248,0.0,1.0,81,0.00,,OVC060,0.00,VWS V14.01,2013-02-15 02:07:00,
2013-02-14 20:10:00,35.6,30.4,30.03,WSW,248,0.0,1.0,81,0.00,,,0.00,VWS V14.01,2013-02-15 02:10:00,
2013-02-14 20:12:00,35.7,30.5,30.04,SW,214,1.0,1.0,81,0.00,,OVC060,0.00,VWS V14.01,2013-02-15 02:12:00,
2013-02-14 20:18:00,35.8,30.5,30.03,WSW,250,0.0,1.0,81,0.00,,OVC060,0.00,VWS V14.01,2013-02-15 02:18:00,
2013-02-14 20:20:00,35.8,30.5,30.03,WSW,250,0.0,1.0,81,0.00,,,0.00,VWS V14.01,2013-02-15 02:20:00,
2013-02-14 20:23:00,35.8,30.5,30.03,WSW,250,0.0,0.0,81,0.00,,OVC037,0.00,VWS V14.01,2013-02-15 02:23:00,
2013-02-14 20:28:00,35.8,30.5,30.03,West,259,1.0,1.0,81,0.00,,OVC037,0.00,VWS V14.01,2013-02-15 02:28:00,
2013-02-14 20:30:00,35.8,30.5,30.03,West,259,0.0,1.0,81,0.00,,,0.00,VWS V14.01,2013-02-15 02:30:00,
2013-02-14 20:33:00,35.9,30.6,30.03,West,262,0.0,2.0,81,0.00,,OVC037,0.00,VWS V14.01,2013-02-15 02:33:00,
2013-02-14 20:38:00,35.9,30.6,30.04,West,261,0.0,2.0,81,0.00,,OVC037,0.00,VWS V14.01,2013-02-15 02:38:00,
2013-02-14 20:40:00,35.9,30.6,30.04,West,262,1.0,2.0,81,0.00,,,0.00,VWS V14.01,2013-02-15 02:40:00,
2013-02-14 20:43:00,36.0,30.8,30.04,West,263,1.0,1.0,81,0.00,,BKN090,0.00,VWS V14.01,2013-02-15 02:43:00,
2013-02-14 20:48:00,36.1,30.8,30.04,West,267,0.0,1.0,81,0.00,,BKN090,0.00,VWS V14.01,2013-02-15 02:48:00,
2013-02-14 20:50:00,36.1,30.8,30.04,West,267,0.0,1.0,81,0.00,,,0.00,VWS V14.01,2013-02-15 02:50:00,
2013-02-14 20:53:00,36.0,30.8,30.04,West,267,0.0,1.0,81,0.00,,BKN090,0.00,VWS V14.01,2013-02-15 02:53:00,
2013-02-14 20:58:00,36.0,30.8,30.04,West,277,0.0,2.0,81,0.00,,BKN090,0.00,VWS V14.01,2013-02-15 02:58:00,
2013-02-14 21:00:00,36.0,30.8,30.04,West,277,0.0,2.0,81,0.00,,,0.00,VWS V14.01,2013-02-15 03:00:00,
2013-02-14 21:03:00,35.9,30.6,30.04,WNW,291,1.0,1.0,81,0.00,,BKN090,0.00,VWS V14.01,2013-02-15 03:03:00,
2013-02-14 21:08:00,36.0,30.8,30.04,WNW,288,2.0,4.0,81,0.00,,BKN090,0.00,VWS V14.01,2013-02-15 03:08:00,
2013-02-14 21:10:00,36.0,30.8,30.04,WNW,288,2.0,4.0,81,0.00,,,0.00,VWS V14.01,2013-02-15 03:10:00,
2013-02-14 21:13:00,36.0,30.8,30.04,WNW,289,1.0,3.0,81,0.00,,SCT090,0.00,VWS V14.01,2013-02-15 03:13:00,
2013-02-14 21:18:00,35.9,30.6,30.04,West,280,1.0,3.0,81,0.00,,SCT090,0.00,VWS V14.01,2013-02-15 03:18:00,
2013-02-14 21:20:00,35.9,30.6,30.04,West,279,1.0,3.0,81,0.00,,,0.00,VWS V14.01,2013-02-15 03:20:00,
2013-02-14 21:23:00,35.7,30.5,30.04,WNW,295,1.0,3.0,81,0.00,,CLR,0.00,VWS V14.01,2013-02-15 03:23:00,
2013-02-14 21:28:00,35.6,30.4,30.04,NW,314,1.0,3.0,81,0.00,,CLR,0.00,VWS V14.01,2013-02-15 03:28:00,
2013-02-14 21:30:00,35.6,30.4,30.04,NW,314,2.0,3.0,81,0.00,,,0.00,VWS V14.01,2013-02-15 03:30:00,
2013-02-14 21:34:00,35.6,30.4,30.04,WNW,296,1.0,3.0,81,0.00,,CLR,0.00,VWS V14.01,2013-02-15 03:34:00,
2013-02-14 21:39:00,35.4,30.2,30.04,WNW,283,2.0,4.0,81,0.00,,CLR,0.00,VWS V14.01,2013-02-15 03:39:00,
2013-02-14 21:40:00,35.4,30.2,30.04,WNW,283,2.0,4.0,81,0.00,,,0.00,VWS V14.01,2013-02-15 03:40:00,
2013-02-14 21:44:00,35.4,30.2,30.04,WNW,288,1.0,6.0,81,0.00,,CLR,0.00,VWS V14.01,2013-02-15 03:44:00,
2013-02-14 21:49:00,35.3,30.1,30.04,NW,321,1.0,2.0,81,0.00,,CLR,0.00,VWS V14.01,2013-02-15 03:49:00,
2013-02-14 21:50:00,35.3,30.1,30.04,NW,319,2.0,6.0,81,0.00,,,0.00,VWS V14.01,2013-02-15 03:50:00,
2013-02-14 21:54:00,35.1,30.2,30.04,WNW,290,0.0,2.0,82,0.00,,CLR,0.00,VWS V14.01,2013-02-15 03:54:00,
2013-02-14 21:59:00,35.0,30.1,30.04,NW,325,3.0,4.0,82,0.00,,CLR,0.00,VWS V14.01,2013-02-15 03:59:00,
2013-02-14 22:00:00,34.9,30.0,30.04,NW,316,2.0,4.0,82,0.00,,,0.00,VWS V14.01,2013-02-15 04:00:00,
2013-02-14 22:04:00,35.1,30.5,30.05,NNW,330,2.0,4.0,83,0.00,,CLR,0.00,VWS V14.01,2013-02-15 04:04:00,
2013-02-14 22:09:00,35.1,30.5,30.05,NNW,330,2.0,4.0,83,0.00,,CLR,0.00,VWS V14.01,2013-02-15 04:09:00,
2013-02-14 22:10:00,35.1,30.5,30.04,NW,308,3.0,4.0,83,0.00,,,0.00,VWS V14.01,2013-02-15 04:10:00,
2013-02-14 22:15:00,35.0,30.4,30.05,NNW,328,3.0,4.0,83,0.00,,CLR,0.00,VWS V14.01,2013-02-15 04:15:00,
2013-02-14 22:20:00,34.9,30.3,30.05,North,7,2.0,2.0,83,0.00,,CLR,0.00,VWS V14.01,2013-02-15 04:20:00,
2013-02-14 22:25:00,34.8,30.5,30.05,NW,307,2.0,4.0,84,0.00,,CLR,0.00,VWS V14.01,2013-02-15 04:25:00,
2013-02-14 22:30:00,34.8,30.5,30.05,NW,307,1.0,5.0,84,0.00,,CLR,0.00,VWS V14.01,2013-02-15 04:30:00,
2013-02-14 22:35:00,34.7,30.4,30.05,NNW,327,2.0,5.0,84,0.00,,CLR,0.00,VWS V14.01,2013-02-15 04:35:00,
2013-02-14 22:40:00,34.5,30.5,30.05,NW,318,2.0,4.0,85,0.00,,SCT090,0.00,VWS V14.01,2013-02-15 04:40:00,
2013-02-14 22:45:00,34.5,30.5,30.05,NW,313,3.0,5.0,85,0.00,,SCT090,0.00,VWS V14.01,2013-02-15 04:45:00,
2013-02-14 22:50:00,34.4,30.6,30.05,NW,313,4.0,4.0,86,0.00,,SCT090,0.00,VWS V14.01,2013-02-15 04:50:00,
2013-02-14 22:56:00,34.4,30.6,30.05,NW,314,3.0,5.0,86,0.00,,SCT090,0.00,VWS V14.01,2013-02-15 04:56:00,
2013-02-14 23:00:00,34.4,30.6,30.05,NW,314,2.0,4.0,86,0.00,,CLR,0.00,VWS V14.01,2013-02-15 05:00:00,
2013-02-14 23:01:00,34.3,30.6,30.05,West,276,2.0,4.0,86,0.00,,CLR,0.00,VWS V14.01,2013-02-15 05:01:00,
2013-02-14 23:04:00,34.3,30.8,30.05,NW,326,3.0,5.0,87,0.00,,CLR,0.00,VWS V14.01,2013-02-15 05:04:00,
2013-02-14 23:06:00,34.3,30.8,30.05,NW,310,3.0,5.0,87,0.00,,CLR,0.00,VWS V14.01,2013-02-15 05:06:00,
2013-02-14 23:10:00,34.2,30.7,30.05,West,281,1.0,5.0,87,0.00,,,0.00,VWS V14.01,2013-02-15 05:10:00,
2013-02-14 23:11:00,34.2,30.7,30.05,NW,312,3.0,6.0,87,0.00,,CLR,0.00,VWS V14.01,2013-02-15 05:11:00,
2013-02-14 23:16:00,34.1,30.6,30.05,NW,309,3.0,6.0,87,0.00,,CLR,0.00,VWS V14.01,2013-02-15 05:16:00,
2013-02-14 23:20:00,34.1,30.9,30.05,NNW,333,3.0,6.0,88,0.00,,,0.00,VWS V14.01,2013-02-15 05:20:00,
2013-02-14 23:22:00,34.1,30.9,30.05,NW,325,3.0,3.0,88,0.00,,CLR,0.00,VWS V14.01,2013-02-15 05:22:00,
2013-02-14 23:27:00,34.0,30.8,30.05,NW,307,3.0,5.0,88,0.00,,CLR,0.00,VWS V14.01,2013-02-15 05:27:00,
2013-02-14 23:30:00,34.0,30.8,30.05,NW,316,2.0,5.0,88,0.00,,,0.00,VWS V14.01,2013-02-15 05:30:00,
2013-02-14 23:32:00,34.0,30.8,30.06,NW,315,3.0,4.0,88,0.00,,CLR,0.00,VWS V14.01,2013-02-15 05:32:00,
2013-02-14 23:37:00,33.9,31.0,30.05,NW,322,1.0,6.0,89,0.00,,CLR,0.00,VWS V14.01,2013-02-15 05:37:00,
2013-02-14 23:40:00,33.9,31.0,30.05,WNW,302,3.0,6.0,89,0.00,,,0.00,VWS V14.01,2013-02-15 05:40:00,
2013-02-14 23:42:00,33.8,30.9,30.05,NW,320,3.0,6.0,89,0.00,,CLR,0.00,VWS V14.01,2013-02-15 05:42:00,
2013-02-14 23:47:00,33.8,30.9,30.05,NW,321,3.0,6.0,89,0.00,,CLR,0.00,VWS V14.01,2013-02-15 05:47:00,
2013-02-14 23:50:00,33.8,30.9,30.05,North,349,2.0,6.0,89,0.00,,,0.00,VWS V14.01,2013-02-15 05:50:00,
2013-02-14 23:52:00,33.7,30.8,30.05,WNW,298,4.0,4.0,89,0.00,,CLR,0.00,VWS V14.01,2013-02-15 05:52:00,
2013-02-14 23:57:00,33.7,31.1,30.06,NW,320,2.0,5.0,90,0.00,,CLR,0.00,VWS V14.01,2013-02-15 05:57:00,